CAPE
119 126 185 66 534 866 628 330 10 0 0 0 0 0 0 0 0 0 0 0 0 0 0 0 0 0 0 0 0 0 0 0
375 459 545 483 689 979 517 116 48 68 15 10 0 0 0 0 0 0 0 0 0 0 0 0 0 0 0 0 0 0 0 0
528 737 868 930 1163 649 414 350 112 221 325 303 52 0 0 0 0 0 0 0 0 0 0 0 0 0 0 0 0 0 0 0
800 999 1120 1184 849 801 665 543 399 497 307 23 4 0 0 0 0 0 0 0 0 0 0 0 0 0 0 0 0 0 0 0
989 1119 850 816 751 674 690 738 613 345 1 0 0 0 0 3 7 3 0 0 0 0 0 0 0 0 0 0 0 0 0 0
877 1010 882 894 863 852 520 172 43 0 1 5 0 47 33 14 8 1 0 0 0 0 0 0 0 0 5 17 30 17 3 6
453 543 451 282 461 368 261 4 0 0 0 0 7 10 0 0 0 0 0 0 0 0 0 3 1 0 0 10 13 9 3 2
91 46 7 7 2 4 0 0 0 0 0 0 0 0 0 0 0 0 0 0 0 0 0 0 0 0 0 8 32 51 22 10
1 0 0 0 0 0 0 0 0 0 0 0 0 0 0 0 0 0 0 0 0 0 0 0 0 0 0 1 20 40 55 20
0 0 3 0 0 0 0 3 4 1 0 0 0 0 0 0 0 0 0 0 0 0 0 0 0 0 0 1 4 42 39 12
0 0 4 8 5 5 2 9 0 0 0 0 0 0 0 0 0 0 0 0 0 0 0 0 0 0 0 0 0 23 17 25
15 3 10 18 3 5 0 0 0 0 0 0 0 0 0 0 0 0 0 0 0 0 0 0 0 0 0 6 13 7 11 1
31 34 8 13 1 0 0 0 0 0 0 0 0 0 0 0 0 0 0 0 0 0 0 0 0 6 0 0 0 0 0 0
36 38 3 0 0 0 0 0 0 0 0 0 0 0 0 0 0 0 0 0 0 0 0 0 6 0 0 0 0 2 0 4
37 0 0 0 0 0 0 0 0 0 0 0 0 0 0 0 0 0 0 0 0 0 0 11 3 0 0 0 1 8 2 3
0 0 0 0 0 0 0 0 0 0 0 0 0 0 0 0 0 0 0 0 0 1 11 3 0 0 7 0 1 0 3 4
0 0 0 0 0 0 0 0 0 0 0 0 0 0 0 0 0 0 0 0 0 6 7 0 0 0 0 0 0 0 0 0
0 0 0 0 0 0 0 0 0 0 0 0 0 0 0 0 0 0 0 0 2 14 0 0 0 4 0 0 0 0 0 0
0 0 0 0 0 0 0 0 0 0 0 0 0 0 0 0 0 0 0 1 1 2 0 0 1 2 0 0 0 0 0 0
CIN
-68 -63 -42 -46 -35 -18 -108 -171 -174 0 0 0 0 -39 0 0 0 0 0 0 0 0 0 0 0 0 0 0 0 0 0 0
-77 -52 -33 -18 -48 -69 -154 -228 -195 -130 -121 -107 0 0 0 0 0 0 0 0 0 0 0 0 0 0 0 0 0 0 0 0
-61 -47 -36 -14 -35 -116 -142 -93 -130 -41 -7 -10 -42 0 0 0 0 0 0 0 0 0 0 0 0 0 0 0 0 0 0 0
-27 -16 -21 -25 -85 -77 -45 -33 -19 -18 -16 -51 -6 0 0 0 0 0 0 0 0 0 0 0 0 0 0 0 0 0 0 0
-10 -11 -62 -70 -63 -60 -9 -8 -9 -10 -12 0 -7 0 0 -38 -28 -23 0 0 0 0 0 0 0 0 0 0 0 0 0 0
-9 -24 -57 -33 -15 -11 -17 -19 -61 0 -1 -26 0 -14 -45 -51 -70 -76 0 0 0 0 0 0 0 -2 -10 -16 -11 -17 -28 -25
-43 -27 -34 -55 -17 -24 -18 -68 0 0 0 0 -16 -22 0 0 0 0 0 0 0 0 0 -12 -13 0 0 -16 -18 -28 -19 -34
-127 -178 -229 -214 -84 -73 0 0 0 0 0 0 0 0 0 0 0 0 0 0 0 0 0 0 0 0 0 -10 -10 -19 -25 -34
-16 0 0 0 0 0 0 0 0 0 0 0 0 0 0 0 0 0 0 0 0 0 0 0 0 0 0 -2 -16 -18 -22 -27
0 0 -9 0 0 0 0 -8 -16 -16 0 0 0 0 0 0 0 0 0 0 0 0 0 0 0 0 0 -5 -13 -9 -16 -24
0 0 -161 -13 -11 -9 -12 -17 0 0 0 0 0 0 0 0 0 0 0 0 0 0 0 0 0 0 0 0 0 -15 -22 -27
-163 -37 -58 -112 -56 -33 0 -4 0 0 0 0 0 0 0 0 0 0 0 0 0 0 0 0 0 0 -2 -11 -19 -14 -14 -4
-104 -69 -28 -18 -27 0 0 0 0 0 0 0 0 0 0 0 0 0 0 0 0 0 0 0 0 -6 -1 0 0 0 0 0
-45 -37 -29 0 0 0 0 0 0 0 0 0 0 0 0 0 0 0 0 0 0 0 0 -2 -6 0 0 0 0 -1 -1 -6
-14 -4 0 0 0 0 0 0 0 0 0 0 0 0 0 0 0 0 0 0 0 0 0 -9 -22 0 0 0 -3 -7 -4 -5
0 0 0 0 0 0 0 0 0 0 0 0 0 0 0 0 0 0 0 0 0 -4 -4 -27 0 0 -5 -3 -4 0 -9 -4
0 0 0 0 0 0 0 0 0 0 0 0 0 0 0 0 0 0 0 0 0 -5 -17 0 0 -1 0 0 0 0 0 0
0 0 0 0 0 0 0 0 0 0 0 0 0 0 0 0 0 0 0 0 -6 -5 0 0 0 -10 0 0 0 0 0 0
0 0 0 0 0 0 0 0 0 0 0 0 0 0 0 0 0 0 0 -6 -5 -12 0 0 -5 -12 0 0 0 0 0 0
Wind_Speed
10 6 5 9 14 14 17 12 11 10 6 4 3 3 3 3 4 5 6 4 2 4 5 3 3 3 4 4 3 4 4 4
7 5 5 6 9 17 15 15 12 7 5 6 6 5 4 4 4 6 4 5 4 4 4 4 4 4 4 3 3 4 4 5
10 7 5 3 12 16 12 12 12 9 8 7 5 5 5 4 5 4 7 5 3 3 3 4 5 4 4 4 4 3 3 5
11 10 7 8 11 10 9 10 12 12 7 6 6 5 3 4 5 4 4 3 3 3 4 4 4 3 3 3 3 4 3 4
13 13 11 8 9 11 12 16 14 7 8 5 7 5 4 2 4 4 5 5 3 4 3 3 2 2 3 3 2 2 2 4
11 16 13 14 14 12 11 10 8 8 3 7 5 3 5 4 4 5 3 2 4 5 3 4 2 2 4 4 4 3 2 3
12 11 13 12 6 6 6 8 9 7 4 6 2 7 7 5 5 3 1 2 2 1 1 3 3 4 4 3 2 3 3 3
13 15 13 12 9 7 6 8 9 7 6 6 7 8 7 3 2 1 4 3 3 4 5 5 3 4 6 6 5 2 4 3
14 15 14 13 11 10 9 10 10 8 7 7 7 5 3 4 5 3 3 2 3 5 5 5 6 6 6 6 4 3 4 3
15 15 13 14 12 10 7 10 9 9 8 7 5 6 4 0 3 3 1 2 4 5 5 5 6 6 7 7 4 5 2 2
13 13 10 11 11 10 7 6 10 10 8 6 5 3 3 4 2 2 1 2 3 4 5 5 6 6 6 7 6 3 3 3
12 11 11 8 8 9 7 6 11 8 9 5 3 4 2 1 1 1 1 1 3 4 5 6 6 6 7 6 6 5 6 6
12 10 10 9 10 9 6 6 7 9 5 5 5 7 3 2 3 1 1 2 3 4 5 6 6 6 8 7 7 7 7 6
12 10 10 7 7 8 8 8 8 5 6 8 6 2 2 3 3 3 4 4 4 4 6 6 5 5 6 6 4 5 5 5
9 8 8 6 7 8 9 7 5 7 9 1 2 2 3 4 4 4 3 3 4 5 7 6 4 3 5 5 5 4 5 5
7 8 8 9 9 8 7 7 7 4 2 1 3 5 4 4 4 4 4 4 5 6 6 4 4 3 5 3 5 4 4 5
9 10 10 10 10 8 8 7 5 5 2 4 4 4 4 4 5 5 6 5 5 6 3 4 4 5 7 3 2 3 5 6
8 8 7 8 8 8 7 5 6 4 4 3 4 4 4 4 5 6 6 6 6 4 3 3 5 6 7 2 2 2 4 6
6 6 7 7 9 7 7 6 5 3 2 3 4 4 5 6 6 6 6 6 5 2 1 5 4 2 10 7 6 4 5 6
Wind_Direction
131 161 150 160 150 137 120 112 108 107 114 131 158 142 139 145 133 134 173 115 123 17 114 124 1 18 45 38 8 356 324 326
122 153 140 217 134 120 122 132 138 132 162 183 173 178 148 147 168 134 131 105 85 59 16 39 65 32 8 16 32 341 327 330
160 148 168 132 113 120 137 147 160 184 201 200 159 127 166 161 107 101 86 77 60 74 57 19 36 18 344 33 16 337 344 5
166 161 147 113 115 128 147 148 180 205 195 121 143 156 106 111 122 138 130 130 81 37 37 39 33 16 360 357 332 354 342 321
167 140 135 140 143 163 182 174 190 179 133 151 132 169 153 112 126 113 143 138 93 23 9 19 355 312 299 275 312 304 299 291
154 145 153 172 180 183 172 156 137 115 160 145 163 128 135 108 93 104 51 165 208 182 212 240 231 259 268 271 276 25 330 295
152 152 148 132 134 118 132 134 122 124 109 89 90 84 68 69 59 55 276 49 338 259 346 31 13 344 327 315 259 249 287 300
161 151 148 147 142 137 140 138 140 136 124 107 84 83 71 72 129 51 31 6 355 4 22 1 341 316 306 296 281 266 269 275
166 161 156 158 165 164 182 157 150 143 129 108 94 113 83 50 31 26 23 346 344 359 1 356 337 323 319 313 301 258 228 258
178 170 164 163 169 171 192 167 145 136 104 106 113 83 82 236 275 44 341 11 342 16 351 334 321 316 309 305 294 290 307 332
187 172 168 162 165 165 166 141 122 105 125 89 93 95 254 236 58 274 11 20 9 330 337 328 313 304 307 307 297 344 337 284
190 180 161 161 125 137 141 130 118 138 104 117 159 237 288 329 262 321 20 4 339 341 329 322 307 312 303 314 339 332 344 9
188 180 150 143 143 136 138 125 131 113 139 174 201 213 208 237 270 296 34 1 334 331 324 305 305 335 8 356 350 340 333 344
184 160 143 158 147 144 157 106 116 141 180 203 214 205 53 322 345 8 8 339 339 328 309 293 305 30 346 319 303 302 339 298
158 147 145 151 162 141 124 119 141 204 215 172 34 30 28 15 354 339 300 308 316 299 282 290 9 21 287 316 317 248 255 282
164 165 162 172 134 136 143 163 181 191 75 359 25 45 29 9 338 320 306 287 281 272 290 14 343 292 270 303 264 329 307 306
194 182 180 158 149 156 176 153 183 93 7 21 31 22 4 343 322 303 279 269 279 284 9 1 317 295 131 118 298 311 333 318
193 178 160 145 158 146 147 150 95 67 33 357 16 5 321 320 314 308 301 295 280 294 22 297 281 297 142 127 257 290 326 292
147 128 120 118 114 105 88 101 107 111 46 8 346 335 328 317 305 299 301 312 321 312 333 303 286 290 149 180 229 275 290 293